User: anonymous   Login
Location: T�bingen+AIT
(48.5342°N, 9.0700°E)
Time: 11:28:42
(UTC+02:00)
Language:

SPOT 5 - Orbit

View from above orbital plane
View from above orbital plane
View from above satellite
View from above satellite

Ground track
Ground track

The orbit data is extracted from the following two-line orbital elements,

1 27421U 02021A   18199.75330951  .00000113  00000-0  36380-4 0  9991
2 27421  98.3545 267.2991 0134981 193.2018 166.5630 14.51941305843216
Epoch (UTC): 18 July 2018 18:04:45
Eccentricity: 0.0134981
inclination: 98.3545°
perigee height: 623 km
apogee height: 815 km
right ascension of ascending node: 267.2991°
argument of perigee: 193.2018°
revolutions per day: 14.51941305
mean anomaly at epoch: 166.5630°
orbit number at epoch: 84321

The dashed part of the orbit path shows where the satellite is in the earth's shadow,  

DLR